Dewpoint
2 1 2 1 1 1 1 1 1 1 1 1 1 1 1 0 0 -1 -1 -0 -4 -11 -18 -17 -3 -5 -1 4 4 -11 -6 -8 -3 -6 -11 -11 -1 -1 -1 -2 -3 0 -4 -4 -4 -6 -7
2 1 2 2 1 1 1 1 1 1 1 1 1 1 1 1 1 0 -0 -1 -7 -16 -22 -21 -15 0 2 2 -2 -2 -10 -7 -7 -2 -2 -4 -6 -4 -3 -3 -4 -5 -4 -5 -4 -4 -4
1 1 1 1 1 1 1 1 -1 -0 1 1 1 1 1 1 0 0 0 0 -1 -13 -19 -25 -19 2 2 -1 -14 -1 -3 -8 -7 -4 -2 -5 -9 -5 -5 -4 -5 -5 -5 -4 -4 -4 -4
1 1 0 1 1 0 0 0 1 1 1 0 1 1 1 0 1 -1 0 0 -3 -14 -17 -24 -4 5 2 -3 -9 -17 -10 -7 -6 -1 -2 -7 -5 -5 -5 -6 -5 -4 -5 -3 -6 -4 -4
0 1 1 1 1 0 1 0 -0 -1 -1 -1 -1 -1 -0 0 0 -3 -1 -3 -11 -13 -3 1 4 3 1 1 -1 -3 -4 -5 -3 -2 5 0 0 -4 -4 -3 -2 -3 -6 -3 -5 -5 -4
0 0 0 -0 -0 0 -0 -1 -1 -1 -2 -8 -4 -2 -1 -1 -4 -7 -6 -9 -7 -10 -4 -4 3 3 -0 -0 -3 1 0 0 3 3 4 2 -1 -2 -2 -3 -3 -3 -1 -6 -6 -5 -4
0 -0 -0 -0 -0 -1 -1 -2 -4 -6 -13 -10 -8 -2 -2 -2 -8 -5 -5 -4 -3 -6 -6 -4 -7 -6 -9 -9 -10 -8 -4 -2 2 3 5 1 1 2 -2 -4 -8 -8 -7 -5 -6 -5 -4
-0 -0 0 -0 -1 -1 -6 -12 -13 -16 -18 -15 -4 -3 -2 -2 -2 -4 -5 -3 -2 -2 -1 -4 -3 -3 -5 -4 -3 -3 -7 -2 -0 3 2 2 3 -2 -3 -4 -4 -7 -7 -6 -6 -6 -4
-0 -0 -0 -1 -1 -6 -7 -5 -6 -3 -12 -15 -17 -15 -2 -1 -6 -8 -6 -5 -3 -2 -2 -4 -2 -2 -4 -4 -3 -2 -1 -1 -0 2 1 3 0 -2 -3 -4 -3 -4 -6 -8 -7 -4 -3
-0 -0 -1 -1 -2 -3 -3 -5 -2 -2 -5 -9 -10 -13 -6 -4 -7 -7 -7 -6 -5 -2 -2 -7 -3 -5 -4 -5 -1 -5 -4 -2 -1 0 1 1 -2 -2 -2 -3 -4 -3 -5 -6 -5 -6 -7
-1 -1 -1 -1 -2 -6 -3 -2 -3 -3 -4 -7 -9 -12 -11 -9 -5 -4 -6 -6 -5 -2 -4 -11 -7 -9 -8 -4 -5 -6 -3 -2 0 0 -0 1 -0 -1 -1 -2 -5 -5 -6 -6 -5 -6 -6
-0 -2 -1 -2 -2 -4 -1 -2 -2 -2 -3 -7 -9 -11 -9 -8 -6 -6 -7 -8 -3 -3 -7 -8 -10 -8 -5 -7 -8 -5 -2 -1 -0 -0 -1 -2 -3 -3 -3 -3 -3 -4 -2 -1 -2 -2 1
-2 -2 -1 -2 -2 -2 -2 -3 -1 -2 -4 -6 -8 -11 -9 -7 -6 -6 -7 -10 -7 -6 -12 -10 -7 -8 -4 -7 -9 -7 -6 1 2 3 3 2 -1 -2 -5 -2 -2 -3 -3 2 3 3 1
-1 -1 -2 -4 -2 -1 -2 -2 -1 -2 -3 -5 -9 -11 -9 -8 -7 -8 -7 -8 -8 -8 -6 -8 -8 -7 -3 -9 -10 -7 -6 2 -1 1 3 2 4 -1 -3 -3 -1 -2 -3 3 3 4 -1
-2 -1 -2 -3 -4 -2 -2 -1 -1 -2 -2 -3 -9 -14 -11 -12 -9 -9 -8 -6 -5 -4 -6 -5 -6 -5 -7 -7 -7 -7 -7 1 -0 -1 -2 1 4 -2 -2 -3 -4 -1 -1 -4 0 1 1
-1 -2 -2 -2 -4 -4 -2 -1 -1 -1 -2 -3 -6 -10 -11 -12 -9 -9 -7 -5 -4 -6 -5 -6 -4 -5 -4 -5 -6 -6 -5 -0 -1 -4 -6 -1 2 0 -2 -3 -4 -3 -4 -0 1 4 3
-1 -1 -1 -2 -3 -4 -2 -2 -1 -1 -1 -3 -5 -6 -11 -11 -10 -9 -5 -5 -5 -6 -7 -6 -4 -4 -5 -4 -5 -5 -6 -8 -5 -7 -8 -2 1 2 -1 0 -0 -0 -1 -2 -2 0 1
-1 -1 -3 -2 -3 -4 -3 -2 -3 -2 -2 -4 -3 -4 -10 -9 -9 -6 -5 -5 -5 -5 -7 -7 -5 -4 -5 -5 -4 -5 -5 -7 -8 -6 -5 -5 -1 1 4 -0 -3 -3 -2 -2 0 3 1
-3 -2 -3 -5 -4 -3 -2 -3 -3 -2 -2 -2 -3 -4 -8 -7 -5 -6 -6 -5 -5 -4 -4 -6 -5 -6 -5 -5 -4 -6 -6 -9 -8 -6 -5 -5 -1 0 4 4 3 1 -2 -2 -2 -2 1
-2 -3 -2 -2 -2 -2 -2 -2 -3 -3 -2 -3 -3 -4 -6 -7 -7 -5 -5 -5 -4 -6 -4 -5 -5 -5 -6 -5 -7 -5 -6 -7 -7 -7 -6 -3 -1 1 1 0 2 4 1 -1 -2 1 0
-2 -2 -3 -2 -3 -2 -1 -2 -3 -3 -2 -3 -3 -6 -4 -6 -5 -5 -5 -4 -3 -2 -5 -7 -7 -6 -5 -4 -5 -6 -7 -7 -8 -8 -3 -4 -3 -4 -4 -4 -2 0 3 2 0 -1 0
-3 -2 -1 -1 -2 -1 -1 -2 -3 -3 -2 -1 -2 -3 -3 -4 -5 -5 -6 -5 -4 -4 -3 -4 -5 -5 -5 -4 -5 -5 -6 -6 -6 -8 -6 -6 -5 -4 -3 -4 -2 0 2 3 2 -1 -1
-3 -1 -1 -1 -1 -1 -2 -3 -2 -3 -3 -1 -2 -2 -3 -6 -6 -5 -6 -6 -5 -5 -6 -5 -5 -4 -5 -7 -8 -7 -7 -7 -6 -5 -4 -4 -4 -2 -2 -1 3 3 0 2 -1 -2 1
-5 -2 -2 -2 -6 -5 -6 -2 -2 -3 -3 -2 -3 -2 -3 -5 -6 -6 -6 -6 -5 -5 -4 -5 -5 -6 -7 -7 -7 -8 -7 -4 -2 -3 -3 -3 -3 -2 -2 2 4 0 -3 -1 -3 -3 -4
-11 -11 -11 -10 -11 -10 -9 -4 -2 -3 -3 -3 -3 -2 -3 -5 -6 -6 -6 -6 -5 -6 -5 -6 -7 -7 -6 -6 -5 -6 -7 -7 -6 -7 -4 -3 -2 -1 2 2 0 -3 -4 -4 -1 -4 -6
-14 -14 -13 -13 -13 -12 -9 -3 -2 -2 -3 -3 -4 -3 -2 -4 -7 -7 -5 -5 -5 -5 -6 -7 -6 -6 -6 -6 -5 -5 -4 -4 -4 -5 -8 -8 -3 -1 0 1 -0 -6 -7 -6 -3 -2 -8
-16 -15 -14 -14 -13 -12 -12 -11 -5 -2 -2 -3 -3 -3 -3 -3 -5 -5 -4 -5 -4 -4 -4 -6 -5 -4 -6 -6 -6 -5 -4 -6 -5 -4 -3 -6 -7 -3 -1 0 -4 -9 -7 -6 -6 -7 -10
-15 -14 -14 -14 -13 -13 -13 -22 -15 -6 -3 -3 -3 -3 -3 -3 -5 -4 -4 -4 -4 -5 -4 -6 -5 -6 -4 -7 -7 -6 -5 -7 -6 -5 -7 -8 -8 -6 -6 -4 -4 -10 -11 -9 -10 -11 -11
-15 -14 -14 -14 -13 -12 -17 -24 -22 -20 -6 -3 -2 -3 -3 -3 -4 -4 -6 -7 -5 -5 -4 -4 -5 -3 -3 -4 -7 -9 -7 -9 -8 -5 -10 -9 -12 -10 -9 -7 -10 -13 -11 -12 -13 -13 -13
Wind_Speed
23 23 23 25 25 27 26 27 30 29 30 30 31 32 32 33 36 34 34 35 37 37 36 35 31 26 19 21 31 22 6 6 11 36 47 46 35 30 16 9 9 7 14 20 37 15 25
23 24 26 25 27 26 29 30 30 32 32 33 32 34 34 35 36 37 38 39 39 39 37 33 31 22 23 31 40 47 36 21 21 24 43 45 30 41 22 10 18 8 22 16 7 24 18
24 25 24 26 27 27 27 29 31 33 34 34 35 35 36 36 37 37 38 40 42 42 38 32 29 23 31 49 26 23 21 42 46 30 35 46 46 31 25 5 29 15 7 5 12 10 7
24 26 26 26 27 28 29 30 31 32 35 37 37 37 37 38 37 40 40 41 43 45 36 29 24 23 27 13 14 36 41 22 20 24 37 35 44 35 12 10 6 7 5 19 12 8 7
24 25 26 26 27 28 30 32 33 34 35 38 39 39 39 39 40 42 41 42 44 38 22 18 13 18 11 4 6 16 27 41 44 29 31 26 38 27 10 8 4 6 18 12 15 15 5
24 24 25 26 28 29 29 31 34 35 38 41 41 41 40 40 39 38 40 41 34 23 19 15 8 10 15 9 28 18 11 12 27 25 22 23 17 15 10 14 24 9 5 5 7 6 10
24 25 26 27 29 27 30 32 35 37 40 41 43 42 38 37 35 37 37 32 28 11 38 13 33 31 37 29 34 37 28 20 19 22 16 15 13 25 37 25 14 5 16 14 6 8 8
23 24 27 27 26 30 33 35 37 40 42 42 42 41 38 37 37 30 28 18 17 19 14 37 30 32 33 25 21 29 27 10 13 21 17 5 27 31 17 18 19 21 12 11 5 6 8
24 25 25 26 28 32 34 36 37 38 42 44 44 45 40 37 30 25 20 22 25 31 8 16 13 5 26 20 17 27 12 11 12 18 21 27 26 10 15 17 22 27 28 19 5 5 3
24 24 24 27 30 32 33 35 37 40 42 45 49 44 37 28 19 21 25 28 30 21 4 6 8 7 25 28 5 14 9 12 10 20 20 17 22 19 18 23 23 27 27 10 5 4 14
24 24 26 27 29 32 33 36 39 41 44 44 48 38 29 23 19 22 31 36 29 2 5 18 8 16 35 9 19 9 14 12 15 18 12 13 17 21 20 27 19 13 7 17 7 4 4
23 24 25 27 28 32 34 36 39 41 44 44 47 27 25 26 20 25 35 31 6 3 5 12 15 22 17 16 13 12 8 11 17 15 16 20 4 15 31 8 16 8 7 7 5 4 6
24 25 27 28 30 32 34 38 39 41 44 44 47 20 23 26 26 28 32 16 5 5 13 13 21 20 13 18 15 13 13 8 8 10 16 8 16 3 5 7 4 12 10 3 2 2 14
25 25 26 28 29 31 33 36 39 41 44 45 44 14 22 28 31 27 21 5 7 10 5 15 15 16 6 18 15 21 14 5 19 13 2 16 10 15 6 11 12 17 14 6 8 7 11
24 26 26 28 29 31 33 35 38 41 44 47 42 14 26 32 24 24 7 5 1 5 5 11 16 6 5 12 7 12 8 4 9 17 11 5 6 4 14 6 18 6 13 18 6 2 2
24 24 27 28 30 32 33 35 37 40 43 46 44 23 26 30 16 18 6 6 3 6 7 4 4 5 8 14 12 15 8 10 5 12 13 5 8 8 13 5 8 13 21 7 2 4 9
26 26 26 28 30 32 32 35 37 39 43 45 36 13 19 25 13 14 3 4 7 13 13 4 3 5 6 6 6 10 7 11 12 19 16 13 4 5 6 13 17 5 10 6 11 10 9
27 27 26 28 31 32 33 35 37 39 42 45 18 5 16 24 9 2 3 9 15 8 6 4 4 4 3 5 5 4 5 7 15 11 16 5 5 5 5 4 5 21 9 17 9 5 6
29 27 28 30 31 32 33 34 36 37 39 40 23 8 14 17 4 6 5 7 3 5 4 4 4 3 3 4 6 6 7 11 18 5 6 5 3 5 3 3 4 6 11 19 2 13 16
28 27 28 30 31 32 33 34 35 36 35 32 9 5 8 6 10 0 7 4 8 12 6 5 5 2 4 11 5 7 15 8 12 15 17 2 4 7 6 5 3 6 13 14 21 15 18
28 29 29 31 31 33 34 35 34 33 32 25 6 3 5 4 7 9 4 4 13 9 5 6 4 2 10 9 16 6 14 18 8 11 3 3 5 9 17 16 15 17 14 20 20 20 17
29 30 31 32 32 33 34 34 34 30 31 18 7 4 7 7 12 5 5 4 11 15 5 6 3 19 15 8 13 22 20 19 9 4 2 2 4 6 9 15 18 17 9 17 22 15 10
30 32 32 32 32 32 32 33 34 30 27 20 21 20 9 5 4 3 3 5 10 13 11 10 12 14 15 14 26 32 32 25 17 17 7 3 3 3 5 9 5 6 14 7 15 17 6
31 32 32 31 29 31 33 33 32 28 26 24 24 23 5 5 2 6 7 7 12 12 10 17 18 3 16 41 43 14 13 7 4 6 7 3 3 1 5 8 3 6 21 19 21 17 18
32 32 32 31 31 33 35 36 33 30 26 25 20 18 5 4 5 12 8 6 14 16 7 10 13 24 29 18 5 7 5 4 3 6 6 9 1 3 3 4 3 13 18 11 7 11 22
32 33 34 32 33 35 36 35 34 32 29 25 18 13 13 6 4 9 7 8 4 5 5 5 21 21 17 3 4 5 4 5 6 13 9 13 3 3 3 4 6 13 21 31 12 7 24
34 35 35 35 35 35 36 36 35 33 29 21 17 13 13 7 13 11 5 5 6 7 5 8 15 9 13 5 3 3 3 5 5 8 13 8 5 9 9 4 6 15 24 19 8 7 28
34 36 37 37 36 34 34 35 35 34 29 17 16 13 9 10 27 19 12 12 16 9 3 12 10 3 3 5 3 3 3 3 3 4 6 6 7 5 5 4 1 27 10 8 6 18 25
34 36 38 37 35 33 33 34 36 34 28 12 15 16 13 14 21 30 26 10 8 9 12 6 4 7 4 2 0 0 3 3 1 2 6 5 3 3 3 3 5 22 15 12 20 22 26
Wind_Direction
18 11 13 9 5 2 1 358 358 355 353 351 348 343 340 338 336 338 334 328 323 318 312 306 302 295 285 245 233 234 200 153 213 213 214 210 193 195 205 194 193 233 252 224 236 235 226
16 7 8 6 4 4 1 360 355 353 350 346 345 340 337 334 331 331 329 326 324 321 315 307 300 289 254 251 254 253 239 239 258 217 215 206 209 201 208 193 196 199 237 264 247 231 226
13 5 7 7 1 2 359 356 353 353 348 345 342 338 335 332 329 327 325 323 320 325 319 301 288 274 247 247 253 262 247 249 251 240 220 217 208 188 204 178 222 224 249 211 239 217 216
9 5 7 5 2 1 358 355 353 350 347 344 340 336 333 331 329 327 328 323 324 327 309 287 279 252 245 267 273 253 250 247 239 234 238 242 211 205 198 188 104 165 178 243 212 165 248
9 5 5 5 0 1 358 355 353 350 347 345 341 337 334 332 330 331 329 328 331 336 321 302 266 215 260 300 260 273 264 250 249 250 231 230 210 217 195 145 146 201 231 218 239 187 148
6 4 4 4 2 0 360 355 357 354 351 350 345 339 337 333 334 334 331 335 343 340 337 341 287 212 268 301 322 289 309 304 244 236 221 212 191 206 213 194 214 189 183 226 220 170 184
9 5 4 7 5 359 1 0 357 356 354 354 350 344 340 336 336 333 337 348 357 348 341 277 281 275 282 295 298 281 281 305 233 199 197 188 198 206 211 211 212 172 207 201 177 169 168
6 4 7 5 1 3 1 357 357 358 357 353 347 344 342 334 332 338 346 6 2 332 310 305 287 280 299 305 291 303 291 242 190 218 201 163 218 218 213 214 215 226 214 212 215 171 168
4 5 4 1 3 2 1 357 354 355 357 356 353 347 340 331 338 345 360 348 337 334 297 315 21 324 322 311 283 291 267 249 225 216 214 213 218 169 192 199 207 221 222 209 192 146 201
3 5 0 4 3 2 357 356 354 353 352 354 355 350 341 337 349 354 350 339 331 331 305 294 325 338 333 318 250 343 313 252 217 231 217 231 226 202 201 211 198 223 221 215 129 123 236
4 1 4 3 1 359 357 355 355 352 350 351 354 352 357 359 354 354 337 334 331 33 355 327 347 331 332 320 306 330 334 324 230 227 198 217 203 213 206 212 195 230 145 190 161 173 21
3 360 3 1 358 358 356 355 353 350 349 351 353 354 1 353 351 343 340 340 9 29 328 318 338 326 344 339 336 330 315 339 260 215 243 231 210 199 225 174 193 136 67 57 63 108 222
359 359 359 357 357 357 355 354 349 350 350 352 355 357 357 357 349 339 335 342 35 80 327 334 328 334 335 356 335 335 321 325 4 185 216 257 219 243 112 148 115 169 150 164 123 172 233
359 358 356 357 355 354 355 352 349 350 350 353 356 359 356 357 348 342 341 35 49 347 298 315 318 322 28 9 337 331 331 337 26 3 301 233 229 189 183 194 183 193 183 159 193 192 253
355 353 352 354 354 353 352 351 349 351 350 348 356 5 0 358 0 356 4 46 333 321 292 320 320 332 2 11 327 346 325 349 45 36 7 326 239 189 171 164 166 197 204 199 104 171 87
352 351 351 350 352 352 352 350 350 350 349 346 352 347 359 355 352 0 55 339 283 311 334 309 321 6 324 348 357 354 317 36 35 28 20 303 298 231 196 142 206 162 197 206 206 195 243
353 347 349 348 351 352 351 351 351 350 349 350 352 338 357 3 2 13 62 256 308 310 332 313 286 301 298 329 337 330 315 324 17 350 1 311 258 305 177 194 190 169 183 195 185 192 227
349 347 344 348 350 351 352 352 354 352 353 352 348 333 340 6 27 31 348 315 307 304 343 290 281 237 257 320 323 293 278 292 320 331 330 331 303 284 285 14 204 202 170 193 205 176 230
351 346 348 349 348 350 350 354 355 352 353 347 336 295 344 5 22 348 305 298 279 308 311 311 284 268 325 301 324 263 291 294 307 346 322 331 310 300 197 21 348 227 218 198 176 206 220
350 348 348 346 345 346 346 351 354 350 350 353 341 329 322 348 3 202 322 315 329 305 280 247 266 315 329 309 273 265 282 291 300 298 300 223 236 258 267 295 330 291 243 217 207 216 225
348 348 347 346 346 345 345 349 350 352 350 354 341 294 281 306 338 330 287 295 324 333 301 341 308 230 316 300 311 252 300 305 306 300 156 102 271 262 266 269 267 253 261 235 222 224 219
346 345 345 343 345 343 345 346 350 355 351 347 337 310 296 279 292 306 314 290 329 334 312 311 268 309 311 281 278 299 309 310 276 290 94 237 260 296 278 288 244 243 267 212 236 235 244
348 345 345 343 343 344 344 348 352 355 353 340 335 321 291 282 302 315 272 303 310 320 289 250 302 305 306 294 306 298 287 278 260 274 284 231 236 296 288 338 181 91 337 315 64 34 348
347 347 344 342 346 345 349 345 347 350 349 337 326 323 288 279 259 293 296 297 307 312 281 295 305 268 301 314 313 313 281 260 319 332 195 254 215 253 283 333 105 116 21 66 81 50 27
351 351 353 349 348 349 347 345 344 343 342 334 330 325 296 271 260 299 306 284 305 303 281 285 313 314 322 321 329 334 352 25 324 25 16 240 134 265 313 351 146 22 354 329 322 56 16
348 347 347 346 346 347 343 341 341 340 341 335 329 323 294 300 254 312 318 318 309 322 320 269 326 337 345 333 8 4 359 318 344 330 1 9 143 309 338 59 41 336 317 328 208 82 10
342 343 343 343 342 342 342 343 343 342 339 335 326 320 302 259 283 316 292 286 323 314 283 301 337 340 1 9 6 3 315 322 357 342 343 360 357 9 348 48 84 349 333 335 54 316 331
339 340 340 340 339 339 340 342 343 344 342 332 325 319 300 272 294 291 285 286 305 293 283 312 333 352 321 24 41 324 325 303 348 36 347 29 334 2 340 10 41 8 2 57 332 312 320
337 338 338 340 340 340 339 341 342 345 340 337 316 323 312 279 271 291 298 292 263 297 277 302 274 301 320 295 202 317 309 330 22 359 358 37 54 275 25 307 30 354 85 27 348 330 327
Height
1535 1532 1528 1524 1521 1517 1513 1509 1505 1499 1494 1490 1485 1480 1474 1469 1462 1456 1450 1444 1439 1433 1430 1427 1425 1424 1423 1418 1394 1401 1402 1403 1402 1407 1408 1416 1423 1427 1432 1434 1438 1437 1423 1425 1424 1430 1428
1537 1534 1530 1526 1522 1518 1513 1509 1505 1500 1494 1488 1484 1477 1471 1465 1458 1453 1447 1440 1432 1427 1423 1420 1417 1418 1417 1394 1391 1393 1401 1399 1402 1403 1403 1407 1408 1410 1416 1420 1425 1424 1429 1421 1421 1422 1427
1539 1535 1532 1527 1523 1518 1514 1509 1504 1498 1493 1487 1481 1475 1468 1461 1455 1448 1442 1435 1427 1420 1414 1410 1408 1408 1399 1363 1384 1389 1390 1392 1395 1398 1398 1398 1403 1405 1406 1412 1412 1415 1423 1425 1421 1420 1423
1540 1536 1532 1528 1524 1519 1514 1509 1503 1497 1491 1485 1479 1471 1463 1457 1449 1442 1435 1428 1419 1410 1402 1396 1396 1396 1380 1374 1381 1379 1388 1386 1387 1392 1395 1398 1401 1401 1401 1404 1408 1416 1418 1418 1410 1418 1418
1542 1538 1534 1529 1524 1519 1513 1507 1502 1496 1488 1481 1473 1466 1458 1451 1443 1436 1429 1420 1411 1401 1394 1389 1387 1387 1377 1375 1376 1376 1377 1375 1384 1386 1390 1395 1398 1397 1398 1402 1412 1411 1400 1411 1407 1410 1416
1543 1538 1533 1528 1523 1517 1513 1507 1500 1493 1485 1477 1469 1460 1453 1446 1438 1431 1423 1416 1407 1401 1395 1390 1387 1387 1378 1373 1374 1371 1373 1372 1373 1380 1385 1389 1390 1391 1392 1391 1379 1397 1407 1402 1401 1403 1408
1542 1538 1533 1528 1523 1516 1509 1504 1497 1490 1483 1475 1467 1458 1451 1442 1434 1427 1419 1410 1406 1402 1401 1399 1392 1387 1380 1372 1374 1366 1368 1369 1369 1371 1372 1373 1381 1365 1354 1370 1377 1383 1387 1392 1393 1392 1401
1542 1537 1533 1528 1521 1516 1509 1502 1496 1488 1481 1473 1466 1457 1449 1441 1432 1425 1420 1416 1415 1414 1396 1385 1386 1384 1381 1371 1364 1360 1362 1366 1362 1357 1362 1370 1353 1348 1371 1377 1380 1379 1383 1387 1389 1387 1393
1542 1538 1533 1527 1521 1513 1508 1502 1494 1487 1480 1471 1462 1453 1445 1437 1429 1424 1420 1418 1414 1410 1404 1387 1386 1383 1374 1370 1363 1356 1357 1353 1352 1356 1350 1343 1329 1360 1366 1370 1377 1368 1367 1378 1382 1389 1392
1544 1538 1533 1527 1520 1514 1506 1498 1491 1485 1477 1468 1459 1448 1438 1432 1429 1424 1419 1416 1411 1407 1403 1393 1382 1378 1372 1363 1360 1352 1351 1352 1347 1343 1349 1348 1350 1347 1356 1358 1363 1366 1355 1375 1386 1390 1385
1543 1539 1532 1526 1519 1511 1504 1497 1490 1482 1475 1467 1458 1448 1439 1430 1427 1424 1420 1412 1407 1406 1427 1391 1385 1382 1375 1367 1359 1350 1349 1345 1341 1340 1343 1333 1337 1346 1347 1338 1361 1356 1364 1374 1386 1393 1393
1544 1537 1531 1525 1518 1512 1506 1499 1491 1483 1474 1465 1456 1447 1442 1436 1430 1425 1417 1409 1406 1410 1438 1396 1392 1384 1380 1367 1358 1352 1347 1344 1336 1335 1335 1330 1334 1339 1328 1348 1353 1362 1374 1382 1392 1399 1406
1544 1538 1534 1527 1521 1515 1508 1501 1493 1484 1474 1465 1455 1447 1441 1436 1430 1424 1417 1410 1420 1434 1408 1402 1392 1386 1380 1376 1362 1355 1349 1343 1341 1332 1333 1332 1330 1330 1332 1347 1352 1357 1367 1389 1405 1412 1373
1544 1538 1531 1525 1520 1515 1509 1501 1492 1483 1473 1464 1454 1447 1442 1436 1430 1422 1417 1416 1442 1415 1417 1408 1399 1391 1388 1387 1372 1364 1350 1345 1350 1343 1333 1328 1330 1327 1326 1329 1340 1346 1355 1374 1376 1389 1358
1543 1538 1531 1525 1518 1512 1506 1501 1492 1484 1474 1463 1454 1447 1442 1436 1430 1423 1420 1436 1426 1425 1420 1411 1399 1395 1394 1394 1391 1377 1370 1356 1361 1366 1370 1346 1320 1313 1315 1323 1329 1348 1348 1336 1362 1371 1386
1540 1535 1531 1525 1518 1512 1508 1501 1494 1485 1474 1465 1456 1447 1444 1437 1432 1427 1427 1427 1425 1421 1419 1413 1415 1407 1406 1396 1397 1388 1375 1365 1368 1369 1371 1360 1342 1314 1314 1318 1322 1325 1330 1353 1354 1360 1353
1540 1535 1529 1524 1518 1512 1505 1499 1492 1484 1475 1465 1454 1448 1445 1439 1434 1431 1440 1437 1425 1420 1419 1416 1417 1412 1410 1405 1402 1396 1385 1374 1368 1365 1367 1370 1351 1321 1314 1311 1316 1325 1331 1334 1334 1344 1342
1540 1535 1530 1524 1519 1512 1507 1498 1491 1483 1474 1464 1457 1454 1446 1440 1438 1438 1440 1436 1428 1420 1418 1416 1412 1410 1411 1406 1404 1402 1393 1388 1378 1378 1370 1367 1360 1339 1319 1308 1305 1306 1317 1322 1327 1344 1347
1541 1536 1530 1524 1517 1510 1504 1498 1491 1484 1478 1470 1463 1456 1447 1443 1449 1444 1437 1433 1429 1423 1420 1416 1413 1409 1406 1405 1407 1399 1388 1381 1379 1380 1377 1371 1359 1347 1313 1316 1310 1311 1309 1312 1320 1320 1323
1540 1535 1529 1522 1515 1510 1503 1497 1491 1484 1477 1470 1466 1462 1451 1447 1449 1450 1445 1432 1429 1423 1418 1415 1412 1409 1409 1402 1400 1400 1389 1379 1376 1376 1371 1369 1360 1349 1335 1325 1336 1325 1311 1309 1309 1314 1316
1539 1534 1528 1521 1516 1510 1504 1497 1491 1486 1479 1475 1469 1468 1464 1459 1448 1450 1448 1438 1432 1426 1421 1416 1411 1410 1409 1399 1392 1387 1382 1376 1372 1364 1368 1369 1367 1352 1339 1331 1331 1332 1325 1308 1306 1304 1307
1539 1533 1527 1522 1517 1511 1505 1497 1490 1487 1480 1475 1472 1469 1463 1457 1452 1450 1445 1441 1435 1430 1427 1418 1417 1406 1404 1403 1395 1384 1379 1374 1374 1370 1373 1371 1372 1355 1336 1313 1321 1326 1315 1307 1307 1303 1306
1538 1532 1527 1522 1515 1510 1503 1496 1491 1486 1479 1476 1472 1467 1463 1455 1453 1451 1447 1442 1437 1432 1421 1417 1414 1409 1400 1391 1382 1376 1371 1367 1367 1366 1365 1369 1368 1347 1336 1318 1305 1312 1334 1322 1333 1342 1337
1538 1532 1526 1519 1513 1506 1500 1495 1489 1485 1482 1475 1471 1466 1461 1456 1453 1449 1445 1441 1436 1432 1426 1416 1412 1409 1397 1387 1372 1364 1360 1361 1358 1355 1358 1356 1352 1350 1342 1311 1305 1344 1349 1344 1348 1358 1359
1538 1531 1525 1520 1514 1509 1501 1493 1486 1481 1478 1473 1470 1465 1461 1454 1449 1444 1442 1438 1433 1426 1422 1415 1409 1406 1396 1386 1380 1375 1359 1363 1360 1355 1357 1355 1353 1349 1329 1323 1342 1347 1355 1362 1350 1364 1370
1536 1530 1524 1518 1511 1505 1497 1491 1484 1479 1476 1470 1467 1464 1461 1456 1446 1442 1441 1437 1433 1427 1420 1414 1408 1402 1398 1393 1393 1397 1385 1383 1371 1361 1357 1351 1352 1350 1338 1339 1349 1387 1367 1351 1346 1355 1375
1534 1529 1522 1515 1507 1501 1495 1489 1482 1475 1470 1466 1463 1461 1459 1452 1442 1442 1441 1439 1435 1432 1427 1417 1410 1403 1401 1401 1403 1405 1399 1389 1393 1383 1372 1365 1370 1358 1349 1341 1373 1393 1370 1353 1365 1389 1384
1531 1524 1518 1512 1505 1498 1492 1485 1478 1472 1466 1462 1457 1455 1455 1450 1441 1438 1438 1437 1434 1433 1430 1421 1417 1411 1406 1411 1414 1409 1405 1401 1399 1396 1400 1404 1399 1388 1382 1374 1380 1397 1382 1385 1407 1397 1389
1527 1521 1514 1508 1502 1496 1490 1482 1476 1470 1464 1460 1455 1451 1449 1449 1440 1436 1432 1431 1431 1430 1429 1425 1422 1418 1413 1412 1415 1416 1410 1410 1409 1401 1406 1414 1423 1420 1412 1397 1402 1405 1406 1408 1406 1399 1390